Simultaneous Nadir Overpasses (SNOs) Predictions

Prediction of SNOs between LANDSAT-8 and METOP-B Satellite Orbit:

Table of predicted SNOs for the next 14.0 days since TLE Epoch: 12/5/2020
Index Date (LANDSAT-8) Time (LANDSAT-8) Lat,Lon (LANDSAT-8) SZA (LANDSAT-8 ) Date (METOP-B) Time (METOP-B) Lat,Lon (METOP-B) SZA (METOP-B ) Distance(km) Time Diff (sec)
1 12/05/2020 15:27:40 -81.11, 167.77 74.29 12/05/2020 15:26:43 -81.10, 167.67 74.33 1.79 57
2 12/05/2020 16:17:05 81.14, -24.13 105.79 12/05/2020 16:17:22 81.13, -24.21 105.78 1.63 17
3 12/08/2020 11:01:55 -81.12,-125.68 73.99 12/08/2020 11:01:05 -81.12,-125.61 74.01 1.13 50
4 12/08/2020 11:51:19 81.14, 42.39 106.08 12/08/2020 11:51:43 81.14, 42.50 106.10 1.90 24
5 12/11/2020 06:36:09 -81.12, -59.18 73.77 12/11/2020 06:35:27 -81.11, -59.30 73.80 2.12 42
6 12/11/2020 07:25:35 81.12, 108.49 106.24 12/11/2020 07:26:07 81.13, 108.43 106.26 1.12 32
7 12/14/2020 02:10:24 -81.12, 7.26 73.61 12/14/2020 02:09:49 -81.12, 7.38 73.61 1.93 35
8 12/14/2020 02:59:49 81.14, 175.28 106.45 12/14/2020 03:00:29 81.13, 175.10 106.44 3.29 40
9 12/16/2020 21:44:39 -81.12, 73.66 73.52 12/16/2020 21:44:12 -81.12, 73.65 73.53 0.16 27



Historial Predications of SNOs between LANDSAT-8 and METOP-B
